Weather History for Ostrava, Czech Republic

Change the Weather History Date:

Wednesday, February 20, 2013

  Actual Average (EPKT) Record (EPKT)
Temperature  
Mean Temperature 25 °F -  
Max Temperature 31 °F 43 °F 50 °F (2014)
Min Temperature 19 °F 29 °F 3 °F (2004)
Degree Days  
Heating Degree Days 40    
Moisture  
Dew Point 24 °F    
Average Humidity 86    
Maximum Humidity 93    
Minimum Humidity 69    
Precipitation  
Precipitation 0.01 in 0.04 in - ()
Sea Level Pressure  
Sea Level Pressure 29.94 in    
Wind  
Wind Speed 4 mph ()    
Max Wind Speed 9 mph    
Max Gust Speed -    
Visibility 4.7 miles    
Events Snow    
Averages and records for this station are not official NWS values.
T = Trace of Precipitation, MM = Missing Value Source: Averaged Metar Reports

Daily Weather History Graph

Daily Weather History Graph

Search for Another Location

Airport:

Trip Planner

Search our weather history database for the weather conditions in past years. The results will help you decide how hot, cold, wet, or windy it might be!

Date:

Astronomy

Feb. 20, 2013 Rise Set
Actual Time 6:48 AM CET 5:15 PM CET
Civil Twilight 6:15 AM CET 5:47 PM CET
Nautical Twilight 5:38 AM CET 6:25 PM CET
Astronomical Twilight 5:01 AM CET 7:02 PM CET
Moon 12:03 PM CET (2/20) 3:12 AM CET (2/20)
Length of Visible Light 11h 32m
Length of Day
10h 27m
Waxing Gibbous, 74% of the Moon is Illuminated
Feb 20
Waxing Gibbous
Feb 25
Full
Mar 4
Last Quarter
Mar 11
New
Mar 19
First Quarter

Hourly Weather History & Observations

Time (CET) Temp. Windchill Dew Point Humidity Pressure Visibility Wind Dir Wind Speed Gust Speed Precip Events Conditions
12:00 AM 30.2 °F 24.3 °F 28.4 °F 93% 29.83 in 5.0 mi NNW 5.8 mph - N/A Snow Light Snow
12:30 AM 30.2 °F 24.3 °F 26.6 °F 86% 29.83 in 6.2 mi NNW 5.8 mph - N/A Snow Light Snow
1:30 AM 28.4 °F - 26.6 °F 93% 29.83 in - Calm Calm - N/A   Clear
2:00 AM 28.4 °F - 26.6 °F 93% 29.83 in 6.2 mi South 2.3 mph - N/A   Scattered Clouds
2:30 AM 28.4 °F 24.6 °F 26.6 °F 93% 29.83 in 6.2 mi South 3.5 mph - N/A   Mostly Cloudy
3:00 AM 30.2 °F 26.7 °F 26.6 °F 86% 29.83 in 6.2 mi South 3.5 mph - N/A Snow Light Snow
3:30 AM 28.4 °F 24.6 °F 26.6 °F 93% 29.86 in 3.1 mi WSW 3.5 mph - N/A Snow Light Snow
4:00 AM 28.4 °F - 26.6 °F 93% 29.86 in 5.0 mi SW 2.3 mph - N/A Snow Light Snow
4:30 AM 28.4 °F 23.3 °F 26.6 °F 93% 29.86 in 5.0 mi SSW 4.6 mph - N/A Snow Light Snow
5:00 AM 28.4 °F 23.3 °F 26.6 °F 93% 29.86 in 6.2 mi SSW 4.6 mph - N/A Snow Light Snow
5:30 AM 28.4 °F 22.2 °F 24.8 °F 86% 29.86 in 6.2 mi SSW 5.8 mph - N/A   Partly Cloudy
6:00 AM 28.4 °F 21.2 °F 24.8 °F 86% 29.86 in 2.5 mi SW 6.9 mph - N/A Snow Light Snow
6:05 AM 28.4 °F 20.4 °F 24.8 °F 86% 29.86 in 1.6 mi SW 8.1 mph - N/A Snow Snow
6:15 AM 26.6 °F 18.2 °F 24.8 °F 93% 29.86 in 5.0 mi SW 8.1 mph - N/A Snow Light Snow
6:30 AM 26.6 °F 19.1 °F 24.8 °F 93% 29.86 in 5.0 mi SW 6.9 mph - N/A Snow Light Snow
6:49 AM 28.4 °F 21.2 °F 24.8 °F 86% 29.86 in 2.5 mi WSW 6.9 mph - N/A Snow Light Snow
7:00 AM 28 °F - 25 °F 85% 29.94 in 2 mi WSW 8.9 mph - - Snow Light Snow
7:00 AM 28.4 °F 21.2 °F 24.8 °F 86% 29.89 in 2.5 mi WSW 6.9 mph - N/A Snow Light Snow
7:30 AM 28.4 °F 21.2 °F 26.6 °F 93% 29.89 in 3.1 mi WSW 6.9 mph - N/A Snow Light Snow
7:51 AM 28.4 °F 22.2 °F 24.8 °F 86% 29.89 in 4.3 mi WSW 5.8 mph - N/A Snow Light Snow
8:00 AM 28.4 °F 22.2 °F 24.8 °F 86% 29.89 in 4.3 mi WSW 5.8 mph - N/A Snow Light Snow
8:30 AM 28.4 °F 23.3 °F 26.6 °F 93% 29.89 in 3.7 mi WSW 4.6 mph - N/A Snow Light Snow
9:00 AM 28.4 °F 23.3 °F 26.6 °F 93% 29.92 in 6.2 mi West 4.6 mph - N/A Snow Light Snow
9:30 AM 30.2 °F 26.7 °F 26.6 °F 86% 29.92 in 6.2 mi WNW 3.5 mph - N/A   Mostly Cloudy
10:00 AM 30.2 °F 25.4 °F 24.8 °F 80% 29.92 in 6.2 mi North 4.6 mph - N/A   Mostly Cloudy
10:30 AM 32.0 °F - 24.8 °F 75% 29.95 in 6.2 mi Variable 1.2 mph - N/A   Mostly Cloudy
11:00 AM 30.2 °F 26.7 °F 24.8 °F 80% 29.95 in 5.0 mi NE 3.5 mph - N/A   Mostly Cloudy
11:12 AM 30.2 °F 25.4 °F 24.8 °F 80% 29.95 in 2.2 mi NE 4.6 mph - N/A Snow Snow Showers
11:30 AM 28.4 °F 24.6 °F 24.8 °F 86% 29.95 in 1.2 mi North 3.5 mph - N/A Snow Snow Showers
12:00 PM 28.4 °F 24.6 °F 26.6 °F 93% 29.95 in 6.2 mi Variable 3.5 mph - N/A Snow Light Snow
12:30 PM 30.2 °F 24.3 °F 24.8 °F 80% 29.95 in 6.2 mi NNE 5.8 mph - N/A   Mostly Cloudy
1:00 PM 30.2 °F 22.6 °F 24.8 °F 80% 29.95 in 6.2 mi North 8.1 mph - N/A   Mostly Cloudy
1:30 PM 30.2 °F 24.3 °F 24.8 °F 80% 29.95 in 6.2 mi NW 5.8 mph - N/A   Mostly Cloudy
2:00 PM 30.2 °F 23.4 °F 23.0 °F 75% 29.95 in 6.2 mi NW 6.9 mph - N/A   Scattered Clouds
2:30 PM 30.2 °F 24.3 °F 23.0 °F 75% 29.98 in 6.2 mi North 5.8 mph - N/A   Mostly Cloudy
3:00 PM 30.2 °F 23.4 °F 21.2 °F 69% 29.98 in 6.2 mi NNW 6.9 mph - N/A   Overcast
3:30 PM 30.2 °F 24.3 °F 23.0 °F 75% 29.98 in 6.2 mi NNW 5.8 mph - N/A   Overcast
4:00 PM 28.4 °F 21.2 °F 23.0 °F 80% 29.98 in 3.7 mi NW 6.9 mph - N/A Snow Light Snow Showers
4:30 PM 28.4 °F - 24.8 °F 86% 29.98 in 4.3 mi Variable 2.3 mph - N/A Snow Light Snow Showers
5:00 PM 28.4 °F 23.3 °F 24.8 °F 86% 29.98 in 4.3 mi NE 4.6 mph - N/A Snow Light Snow
5:30 PM 26.6 °F 18.2 °F 21.2 °F 80% 30.01 in 6.2 mi NW 8.1 mph - N/A   Overcast
6:30 PM 24.8 °F 16.9 °F 19.4 °F 80% 30.01 in - North 6.9 mph - N/A   Clear
7:00 PM 25 °F - 19 °F 69% 30.10 in 6 mi 4.5 mph - -   Partly Cloudy
7:00 PM 24.8 °F 19.1 °F 19.4 °F 80% 30.04 in - NNW 4.6 mph - N/A   Clear
7:30 PM 24.8 °F - 19.4 °F 80% 30.04 in 6.2 mi Calm Calm - N/A   Mostly Cloudy
8:00 PM 24.8 °F - 19.4 °F 80% 30.04 in 6.2 mi Calm Calm - N/A Snow Light Snow
8:30 PM 24.8 °F - 21.2 °F 86% 30.04 in 3.1 mi Calm Calm - N/A Snow Light Snow
9:00 PM 23.0 °F 18.4 °F 21.2 °F 93% 30.04 in 2.8 mi WSW 3.5 mph - N/A Snow Light Snow
9:30 PM 23.0 °F 17.0 °F 21.2 °F 93% 30.06 in 2.8 mi WSW 4.6 mph - N/A Snow Light Snow
10:00 PM 23.0 °F 15.8 °F 21.2 °F 93% 30.06 in 3.1 mi SW 5.8 mph - N/A Snow Light Snow
10:30 PM 19.4 °F 12.8 °F 17.6 °F 93% 30.06 in 1.9 mi WSW 4.6 mph - N/A Snow Snow
11:00 PM 21.2 °F 14.9 °F 19.4 °F 93% 30.06 in 4.3 mi SSW 4.6 mph - N/A   Mostly Cloudy
11:30 PM 21.2 °F 16.4 °F 19.4 °F 93% 30.06 in 4.3 mi SW 3.5 mph - N/A   Partly Cloudy